GPS BIII-2 (PRN 18)

Last updated on Tue Jul 01 2025 00:03:13 GMT+0000 (Coordinated Universal Time)

1 44506U 19056A 25180.89338868 -.00000102 00000+0 00000+0 0 9991 2 44506 55.7797 345.1300 0053354 193.3119 337.9416 2.00562537 43004
UTC large
Height (km)
Speed (km/s)
/
Latitude / Longitude
Inclination (degrees)
Orbital Period (minutes)
Azimuth
Elevation
Range (km)
Doppler Factor

Next 0 passes for location: London (51.5072 / 0.1276)

Sorry there are no passes over London.